Regional Weather Roundup
Issued by NWS

Home | Current Version | Previous Version | Graphics & Text | Print | Product List | Glossary On
Versions: 1 2 3 4 5 6 7 8 9 10 11 12 13 14 15 16 17 18 19 20 21 22 23 24 25 26 27 28 29 30 31 32 33 34 35 36 37 38 39 40 41 42 43 44 45 46 47 48 49 50
847
ASUS43 KMKX 191211
RWRWI

WISCONSIN REGIONAL WEATHER ROUNDUP
NATIONAL WEATHER SERVICE MILWAUKEE/SULLIVAN WI
700 AM CDT SAT AUG 19 2017

NOTE: "FAIR" INDICATES FEW OR NO CLOUDS BELOW 12,000 FEET WITH NO
SIGNIFICANT WEATHER AND/OR OBSTRUCTIONS TO VISIBILITY.

WIZ001-002-006>008-014>016-023>028-191300-
NORTHWEST WISCONSIN

CITY           SKY/WX    TMP DP  RH WIND       PRES   REMARKS
SUPERIOR ARPT    N/A     56  56  99 SW7       29.88R
6HR MIN TEMP:  55; 6HR MAX TEMP:  59;

ASHLAND        CLEAR     59  57  93 SW9       29.88R
6HR MIN TEMP:  57; 6HR MAX TEMP:  63;

HAYWARD        PTCLDY    56  55  97 S3        29.93R FOG
6HR MIN TEMP:  56; 6HR MAX TEMP:  61;

SIREN          CLEAR     53  52  97 CALM      29.93R
6HR MIN TEMP:  53; 6HR MAX TEMP:  59;

CUMBERLAND     FOG       52  52 100 CALM      29.94R VSB<1/4
RICE LAKE      FOG       53  53  99 CALM      29.95R VSB<1/4
6HR MIN TEMP:  53; 6HR MAX TEMP:  58; 6HR PCP:  0.01;

CHETEK         PTCLDY    55  55 100 SW3       29.93S FOG
6HR MIN TEMP:  53; 6HR MAX TEMP:  60;

LADYSMITH      FOG       56  56  98 CALM      29.94S VSB<1/4
6HR MIN TEMP:  55; 6HR MAX TEMP:  63;

EAU CLAIRE     FOG       57  57 100 CALM      29.93R VSB<1/4
6HR MIN TEMP:  55; 6HR MAX TEMP:  62;

MENOMONIE      FOG       55  55 100 CALM      29.94R VSB<1/4
6HR MIN TEMP:  54; 6HR MAX TEMP:  61;

NEW RICHMOND     N/A     56  56 100 S3        29.94S FOG
6HR MIN TEMP:  53; 6HR MAX TEMP:  59;

OSCEOLA        FOG       52  52 100 CALM      29.96S VSB<1/4
6HR MIN TEMP:  52; 6HR MAX TEMP:  58;

$$

WIZ003>005-009-010-017-018-191300-
NORTH CENTRAL WISCONSIN

CITY           SKY/WX    TMP DP  RH WIND       PRES   REMARKS
MANITOWISH WTR FOG       52  52 100 CALM      29.91S VSB 1/4
6HR MIN TEMP:  50; 6HR MAX TEMP:  59;

ARBOR VITAE    FOG       57  56  96 CALM      29.92R VSB 1/2
6HR MIN TEMP:  57; 6HR MAX TEMP:  62;

WOODRUFF       FOG       57  56  96 CALM      29.92R VSB 1/2
6HR MIN TEMP:  57; 6HR MAX TEMP:  62;

RHINELANDER    MOCLDY    59  59 100 SW3       29.93S FOG
6HR MIN TEMP:  55; 6HR MAX TEMP:  59; 6HR PCP: TRACE;

EAGLE RIVER    CLEAR     56  56 100 SW5       29.91S FOG
6HR MIN TEMP:  52; 6HR MAX TEMP:  59;

LAND O LAKES   CLEAR     57  57 100 CALM      29.92S FOG
6HR MIN TEMP:  52; 6HR MAX TEMP:  59;

PHILLIPS       MOCLDY    58  58 100 S3        29.92S
6HR MIN TEMP:  58; 6HR MAX TEMP:  60;

TOMAHAWK         N/A     58  57  97 CALM      29.94R FOG
6HR MIN TEMP:  54; 6HR MAX TEMP:  60;

MEDFORD        FOG       58  58  99 W5        29.94R VSB<1/4
6HR MIN TEMP:  58; 6HR MAX TEMP:  62;

MERRILL        CLEAR     61  61 100 W5        29.94R FOG
$$

WIZ029-030-035-036-043>047-191300-
CENTRAL WISCONSIN

CITY           SKY/WX    TMP DP  RH WIND       PRES   REMARKS
WAUSAU         MOCLDY    61  60  97 W6        29.92R FOG
6HR MIN TEMP:  61; 6HR MAX TEMP:  64;

MOSINEE        PTCLDY    59  59 100 W5        29.95R FOG
MARSHFIELD     CLEAR     58  56  93 NW5       29.94R FOG
6HR MIN TEMP:  57; 6HR MAX TEMP:  62;

STEVENS POINT  FOG       58  58 100 W3        29.95R VSB 1/2
6HR MIN TEMP:  57; 6HR MAX TEMP:  62;

WAUPACA        CLOUDY    66  64  96 W6        29.94R FOG
6HR MIN TEMP:  62; 6HR MAX TEMP:  66;

WAUTOMA        CLEAR     59  59 100 CALM      29.95R FOG
6HR MIN TEMP:  58; 6HR MAX TEMP:  64;

WISC RAPIDS    FOG       58  58 100 CALM      29.96R VSB<1/4
6HR MIN TEMP:  56; 6HR MAX TEMP:  64;

CAMP DOUGLAS   CLEAR     52  52 100 CALM      29.95R FOG
6HR MIN TEMP:  50; 6HR MAX TEMP:  58;

$$

WIZ011>013-019>022-031-037>040-048>050-191300-
NORTHEAST WISCONSIN

CITY           SKY/WX    TMP DP  RH WIND       PRES   REMARKS
ANTIGO         CLOUDY    60  60 100 CALM      29.94R FOG
6HR MIN TEMP:  54; 6HR MAX TEMP:  60;

SHAWANO        CLOUDY    65  62  91 W5        29.91S
6HR MIN TEMP:  60; 6HR MAX TEMP:  65;

OCONTO         MOCLDY    59  58  98 W10       29.90R
6HR MIN TEMP:  55; 6HR MAX TEMP:  59;

STURGEON BAY   MOSUNNY   60  59  96 W6        29.90R
6HR MIN TEMP:  58; 6HR MAX TEMP:  62;

GREEN BAY      CLOUDY    62  62 100 W9        29.92R FOG
6HR MIN TEMP:  58; 6HR MAX TEMP:  62;

MANITOWOC      CLEAR     63  60  90 W5        29.92R FOG
6HR MIN TEMP:  61; 6HR MAX TEMP:  64; 6HR PCP: TRACE;

APPLETON       CLOUDY    63  63 100 W6        29.92R FOG
CLINTONVILLE   CLOUDY    63  61  94 NW6       29.92R
OSHKOSH        CLOUDY    64  62  93 W6        29.93R FOG
6HR MIN TEMP:  62; 6HR MAX TEMP:  65;

$$

WIZ032>034-041-042-053>061-191300-
SOUTHWEST WISCONSIN

CITY           SKY/WX    TMP DP  RH WIND       PRES   REMARKS
LA CROSSE      FOG       62  61  96 S3        29.94R VSB 1/4
6HR MIN TEMP:  60; 6HR MAX TEMP:  64;

SPARTA         FOG       52  52 100 CALM      29.96R VSB<1/4
6HR MIN TEMP:  51; 6HR MAX TEMP:  54;

VIROQUA        CLEAR     59  59 100 CALM      29.96R
6HR MIN TEMP:  55; 6HR MAX TEMP:  60;

BOSCOBEL       FOG       58  57  97 CALM      29.96R VSB<1/4
6HR MIN TEMP:  58; 6HR MAX TEMP:  60;

PRAIRIE DU CHI FOG       57  56  96 CALM      29.96R VSB 1/4
6HR MIN TEMP:  57; 6HR MAX TEMP:  60;

PLATTEVILLE      N/A     54  54 100 NE3       29.97R VSB 1/2
6HR MIN TEMP:  53; 6HR MAX TEMP:  59;

$$

WIZ056-057-062-063-064-067-068-191300-
SOUTH CENTRAL WISCONSIN

CITY           SKY/WX    TMP DP  RH WIND       PRES   REMARKS
REEDSBURG      FOG       54  54 100 CALM      29.95R VSB 3/4
6HR MIN TEMP:  53; 6HR MAX TEMP:  61;

BARABOO/DELLS  CLEAR     58  57  96 S3        29.95S FOG
6HR MIN TEMP:  55; 6HR MAX TEMP:  61;

LONE ROCK      FOG       57  57 100 CALM      29.95R VSB<1/4
6HR MIN TEMP:  57; 6HR MAX TEMP:  61;

MINERAL POINT  CLEAR     59  59 100 CALM      29.96R FOG
MADISON        CLEAR     58  57  97 CALM      29.94S
6HR MIN TEMP:  57; 6HR MAX TEMP:  62;

MIDDLETON      CLEAR     58  58 100 CALM      29.96R
6HR MIN TEMP:  56; 6HR MAX TEMP:  62;

WATERTOWN      FOG       60  60 100 N5        29.94S VSB 1
6HR MIN TEMP:  56; 6HR MAX TEMP:  64;

MONROE         CLEAR     59  59 100 N3        29.95R
JANESVILLE     CLEAR     57  57 100 CALM      29.94S FOG
$$

WIZ051-052-058>065-066-070>072-191300-
SOUTHEAST WISCONSIN

CITY           SKY/WX    TMP DP  RH WIND       PRES   REMARKS
MILWAUKEE      CLEAR     65  62  90 NW6       29.93R
6HR MIN TEMP:  65; 6HR MAX TEMP:  69;

WAUKESHA       CLOUDY    61  61 100 NW6       29.95R FOG
MILWAUKEE/TIMM CLOUDY    61  59  94 NW5       29.95R FOG
RACINE         CLEAR     62  62 100 NW5       29.95R
6HR MIN TEMP:  61; 6HR MAX TEMP:  64;

KENOSHA        CLEAR     61  59  93 NW3       29.95R
6HR MIN TEMP:  58; 6HR MAX TEMP:  64;

FOND DU LAC    CLEAR     63  60  90 SW3       29.94R FOG
6HR MIN TEMP:  63; 6HR MAX TEMP:  65;

SHEBOYGAN      PTCLDY    62  62 100 W6        29.92R FOG
6HR MIN TEMP:  59; 6HR MAX TEMP:  64; 6HR PCP: TRACE;

WEST BEND      CLOUDY    63  61  94 W6        29.95R
JUNEAU         CLOUDY    61  61  98 CALM      29.96R FOG
6HR MIN TEMP:  61; 6HR MAX TEMP:  64;

$$

LSZ147-162-191300-
LAKE SUPERIOR

STATION/POSITION TIME  TEMP    WIND        PRES    WAVE
                       AIR SEA DIR/SP/G            HT/PER
                 (UTC) (F)     (DEG/KT/KT) (MB)    (FT/S)
W MID LAKE BUOY  1150   61 60  250/ 14/ 16 1009.8R   2/ 4
DEVILS ISLAND    1200   61     230/ 14/ 16 1010.9R
SAXON HARBOR     1140   63     170/  3/  7 1010.8S
$$

LMZ867-665-643>646-191300-
LAKE MICHIGAN

STATION/POSITION TIME  TEMP    WIND        PRES    WAVE
                       AIR SEA DIR/SP/G            HT/PER
                 (UTC) (F)     (DEG/KT/KT) (MB)    (FT/S)
S GREEN BAY BUOY 1200   64 70  260/ 14/ 16 1012.2
N MID LAKE BUOY  1150   65 66  250/  8/ 10 1011.9R   1
N



USA.gov is the U.S. government's official web portal to all federal, state and local government web resources and services.